STARLINK-32843, 62814

Orbit data source: Space-Track

STARLINK-32843, 62814 is a payload satellite owned by SpaceX/Seattle (US) in LEO that was launched on Fri, 24 Jan 2025 UTC via an FALCON 9 launch vehicle from the Air Force Western Test Range (AFWTR). Payload-class satellites include a variety of spacecraft equipped with specific instruments for various scientific and technological missions. These include communications satellites like Starlink; space stations such as the ISS; scientific satellites like the Hubble; Earth observation satellites from companies like Planet Labs, Umbra, and HawkEye 360; GPS; miniature CubeSats for education and research; and military/defense satellites.

Loading next visibility...
Identifier
62814, 2025-018J
Orbit
LEO
Country
Flag of USUS
Related business
Manufacturer
SpaceX/Seattle
Mission
Operational Commercial Communications
Bus & Motor
STARLINK V2M, Unknown motor
Mass
730 kg wet, ~700 kg dry
Launch date (UTC)
2025-01-24 (1 year ago)
Launch vehicle
FALCON 9
Launch site
Air Force Western Test Range (AFWTR)
Object type
Payload
Rocket body
Debris
Shape & HBR
Box + 2 Pan, 17.7 m
Radar Cross Section
33.884 m², Large (>1 m²)

Expand to show TLE details & history
Last TLE update: 1 day ago

TLE from 1 day ago
0 STARLINK-32843
1 62814U 25018J   26197.06574548  .00007521  00000-0  25381-3 0  9998
2 62814  53.1585  72.5751 0001209  85.8899 274.2241 15.31707486 82831
Epoch: 2026-07-16T01:34Z
TLE epoch observation values (Epoch: 2026-07-16T01:34:40.409Z)
Latitude
0.00001°
Longitude
114.99419°
Altitude
471.557 km
Speed
7.632 km/s
True Right ascension
04h 50m 18s
True Declination
0° 00' 00"
Sunlit
Object was in daylight at epoch
Visualization orbit readout
Latitude
Unknown
Longitude
Unknown
Altitude
Unknown
Speed
Unknown
Apparent Right ascension
Unknown
Apparent Declination
Unknown
Sunlit
N/A
Visualization observer readout
Local Sidereal Time
21:07:02
Azimuth
Unknown
Elevation
Unknown
Doppler factor
Unknown
Orbital elements
Apogee altitude
471.803 km
Perigee altitude
470.146 km
Semi-major axis
6,849.112 km
Eccentricity
0.00012
Inclination
53.1585°
RAAN
72.5751°
Arg. of periapsis
85.8899°
True anomaly
274.21028°
Mean anomaly
274.2241°
Eccentric anomaly
274.21719°
Mean motion
3.82906 °/min
Orbital period
94.02 mins
BSTAR
0.00025381
Loading maneuver chart data...
Computing Atmospheric mass density...
Loading historical data...
Loading historical data...
Loading historical data...
Loading historical data...
Loading historical data...
Loading historical data...
Loading historical data...

Documentation

Showing up to 5 results
|